(63) Ausonia
ephemeris date magn radius delta ra dec elong phase
Opposition2 Aug 20259.32.136 AU1.124 AU20h57m-22°28'174.9°2.4°
Today19 Sep 202510.62.184 AU1.411 AU20h29m-20°55'128.6°21.1°
(63) Ausonia - 2025-09-19
astro.vanbuitenen.nl


 
-1 year
-1 month
-1 day
Now
+1 day
+1 month
+1 year

The interactive orbit chart above shows the body's path through the solar system and its position at the given date. Green and blue lines are shown perpendicular to the ecliptic plane: Green if the path is above the ecliptic plane, blue if it is below. (Left-click and drag to rotate the view; Right-click and drag to move the view; Use scroll wheel to zoom in our out.)

The orbital elements of Ausonia are:

            e (Eccentricity)                : 0.1282281
            a (Semimajor axis)              : 2.3949157
            i (Inclination)                 : 5.77292
            Ω (Longitude of ascending node) : 337.68532
            ω (Argument of perihelion)      : 295.67012
            M (Mean anomaly)                : 4.87062
            Epoch                           : 2025 May 05

            L (Longitude of perihelion)     : 273.46936
            B (Latitude of perihelion)      : -5.20149
            P (Orbital period in years)     : 3.71            
        

The light curve chart below shows the estimated development of the minor planet's magnitude.


The all-sky chart below shows the path of the minor planet over the same period as the light curve. The current position is marked yellow.





The following chart shows the path of the minor planet in the next few days. The field of view is optimized for (~10x50) binoculars and finderscopes. A more printer-friendly version of the same chart can be found below.




Ephemerides:
Date       Time       RA (2000)    DEC (2000)    delta   radius  elong  phase   PA    magn
2025-09-19 00:00 UT   20 29 40.9   -20 55 26     1.411    2.184  128.6   21.1    75   10.6 
2025-09-19 04:10 UT   20 29 42.3   -20 54 42     1.413    2.184  128.5   21.1    75   10.6 
2025-09-20 00:00 UT   20 29 49.8   -20 51 10     1.421    2.185  127.7   21.3    75   10.6 
2025-09-21 00:00 UT   20 30 00.7   -20 46 50     1.432    2.186  126.8   21.6    75   10.7 
2025-09-22 00:00 UT   20 30 13.5   -20 42 25     1.443    2.188  125.9   21.8    75   10.7 
2025-09-23 00:00 UT   20 30 28.2   -20 37 56     1.453    2.189  125.0   22.1    75   10.7 
2025-09-24 00:00 UT   20 30 44.8   -20 33 23     1.464    2.190  124.1   22.3    75   10.7 
2025-09-25 00:00 UT   20 31 03.3   -20 28 45     1.475    2.191  123.2   22.5    75   10.8 
2025-09-26 00:00 UT   20 31 23.6   -20 24 04     1.486    2.192  122.3   22.7    75   10.8 
2025-09-27 00:00 UT   20 31 45.8   -20 19 18     1.497    2.193  121.4   23.0    75   10.8 
2025-09-28 00:00 UT   20 32 09.7   -20 14 28     1.508    2.195  120.5   23.2    75   10.8 
2025-09-29 00:00 UT   20 32 35.4   -20 09 35     1.520    2.196  119.7   23.4    75   10.9 
2025-09-30 00:00 UT   20 33 02.8   -20 04 37     1.531    2.197  118.8   23.5    75   10.9 
2025-10-01 00:00 UT   20 33 32.0   -19 59 35     1.543    2.198  118.0   23.7    75   10.9 
2025-10-02 00:00 UT   20 34 02.8   -19 54 30     1.554    2.199  117.1   23.9    75   10.9 
2025-10-03 00:00 UT   20 34 35.3   -19 49 20     1.566    2.200  116.3   24.1    75   10.9 
2025-10-04 00:00 UT   20 35 09.5   -19 44 07     1.578    2.202  115.5   24.2    75   11.0 
2025-10-05 00:00 UT   20 35 45.2   -19 38 50     1.590    2.203  114.6   24.4    75   11.0 
2025-10-06 00:00 UT   20 36 22.4   -19 33 29     1.602    2.204  113.8   24.5    75   11.0 
2025-10-07 00:00 UT   20 37 01.3   -19 28 04     1.614    2.205  113.0   24.7    75   11.0 
2025-10-08 00:00 UT   20 37 41.6   -19 22 36     1.626    2.207  112.2   24.8    75   11.1 
2025-10-09 00:00 UT   20 38 23.4   -19 17 04     1.638    2.208  111.4   24.9    75   11.1 
2025-10-10 00:00 UT   20 39 06.7   -19 11 28     1.650    2.209  110.6   25.0    75   11.1 
2025-10-11 00:00 UT   20 39 51.4   -19 05 48     1.663    2.210  109.8   25.2    75   11.1 
2025-10-12 00:00 UT   20 40 37.5   -19 00 05     1.675    2.211  109.0   25.3    75   11.1 
2025-10-13 00:00 UT   20 41 24.9   -18 54 18     1.687    2.213  108.2   25.4    75   11.2 
2025-10-14 00:00 UT   20 42 13.8   -18 48 27     1.700    2.214  107.4   25.5    75   11.2 
2025-10-15 00:00 UT   20 43 03.9   -18 42 32     1.712    2.215  106.7   25.5    75   11.2 
2025-10-16 00:00 UT   20 43 55.4   -18 36 34     1.725    2.216  105.9   25.6    75   11.2 
2025-10-17 00:00 UT   20 44 48.2   -18 30 32     1.738    2.218  105.1   25.7    75   11.2 
2025-10-18 00:00 UT   20 45 42.2   -18 24 26     1.751    2.219  104.4   25.8    75   11.3 
2025-10-19 00:00 UT   20 46 37.5   -18 18 16     1.763    2.220  103.6   25.9    75   11.3 


    Terminology:
            
    delta:  distance between minor planet and earth in AU
    radius: distance between minor planet and sun in AU
    magn:   magnitude (brightness) estimate    
    ra:     right ascension in hours (24h = 360deg)
    dec:    declination in degrees
    elong:  elongation in degrees (angle sun-earth-minor planet)    
    phase:  phase angle in degrees (angle sun-minor planet-earth)        
    AU:     Astronomical Unit (mean distance between earth and sun: 149597870.7 km
    

Orbital elements provided by the MPC (Minor Planet Center).
Calculations by a modified version of AAPlus, a C# implementation of the AA+ project by PJ Naughter from the algorithms presented in the book "Astronomical Algorithms" by Jean Meeus.
NGC2000 dso catalog and star labels from VizieR as provided by the Strasbourg astronomical Data Center.
Tycho2 catalog from the ESO archive.